BMA62 EGLL-EGPH

Flight info

Callsign BMA62
Flight time 1h 2m
Altitude 28000
Route ULTIB T420 TNT UN57 POL UN601 RIBEL DCT INPIP
Aircraft B735/M-SDFHIW/S

Departure

Time 2026-04-21 19:09
Airport London Heathrow Airport (EGLL)

Arrival

Time 2026-04-21 20:11
Airport Edinburgh Airport (EGPH)
Time Latitude Longitude Altitude Speed Heading
2026-04-21 17:54 51.47426 -0.44716 86 ft 0 kts 270°
2026-04-21 18:48 51.47427 -0.44728 86 ft 1 kts 275°
2026-04-21 18:48 51.47426 -0.44722 86 ft 1 kts 276°
2026-04-21 18:49 51.47425 -0.44709 86 ft 1 kts 277°
2026-04-21 18:49 51.47424 -0.44697 89 ft 1 kts 278°
2026-04-21 18:49 51.47423 -0.44688 91 ft 1 kts 278°
2026-04-21 18:49 51.47422 -0.44672 90 ft 1 kts 271°
2026-04-21 18:50 51.47422 -0.44659 90 ft 1 kts 274°
2026-04-21 18:50 51.47420 -0.44647 88 ft 1 kts 281°
2026-04-21 18:50 51.47419 -0.44635 88 ft 1 kts 279°
2026-04-21 18:50 51.47418 -0.44622 87 ft 1 kts 279°
2026-04-21 18:51 51.47417 -0.44610 86 ft 1 kts 280°
2026-04-21 18:51 51.47417 -0.44598 86 ft 1 kts 266°
2026-04-21 18:51 51.47419 -0.44586 86 ft 1 kts 252°
2026-04-21 18:51 51.47422 -0.44575 86 ft 1 kts 238°
2026-04-21 18:52 51.47428 -0.44566 91 ft 1 kts 224°
2026-04-21 18:52 51.47427 -0.44566 91 ft 0 kts 224°
2026-04-21 18:55 51.47424 -0.44566 86 ft 1 kts 186°
2026-04-21 18:55 51.47353 -0.44559 86 ft 13 kts 178°
2026-04-21 18:55 51.47273 -0.44559 86 ft 10 kts 179°
2026-04-21 18:55 51.47204 -0.44558 86 ft 11 kts 180°
2026-04-21 18:56 51.47108 -0.44557 86 ft 17 kts 180°
2026-04-21 18:56 51.46984 -0.44556 86 ft 17 kts 179°
2026-04-21 18:56 51.46880 -0.44555 86 ft 14 kts 179°
2026-04-21 18:56 51.46775 -0.44554 88 ft 16 kts 180°
2026-04-21 18:57 51.46692 -0.44560 90 ft 10 kts 203°
2026-04-21 18:57 51.46665 -0.44677 86 ft 16 kts 270°
2026-04-21 18:57 51.46664 -0.44901 86 ft 23 kts 270°
2026-04-21 18:57 51.46664 -0.45130 88 ft 18 kts 269°
2026-04-21 18:58 51.46663 -0.45318 86 ft 18 kts 270°
2026-04-21 18:58 51.46662 -0.45546 86 ft 20 kts 270°
2026-04-21 18:58 51.46662 -0.45745 86 ft 16 kts 269°
2026-04-21 18:58 51.46661 -0.45889 86 ft 11 kts 269°
2026-04-21 18:59 51.46661 -0.46014 86 ft 12 kts 270°
2026-04-21 18:59 51.46660 -0.46182 90 ft 19 kts 270°
2026-04-21 18:59 51.46659 -0.46427 86 ft 23 kts 269°
2026-04-21 18:59 51.46658 -0.46679 90 ft 22 kts 270°
2026-04-21 19:00 51.46658 -0.46928 88 ft 22 kts 269°
2026-04-21 19:00 51.46657 -0.47164 88 ft 19 kts 270°
2026-04-21 19:00 51.46656 -0.47352 86 ft 15 kts 270°
2026-04-21 19:00 51.46655 -0.47499 86 ft 12 kts 270°
2026-04-21 19:01 51.46655 -0.47632 86 ft 13 kts 270°
2026-04-21 19:01 51.46654 -0.47784 86 ft 14 kts 270°
2026-04-21 19:01 51.46654 -0.47936 86 ft 12 kts 270°
2026-04-21 19:01 51.46654 -0.48057 86 ft 9 kts 270°
2026-04-21 19:02 51.46654 -0.48097 86 ft 0 kts 270°
2026-04-21 19:03 51.46654 -0.48127 86 ft 6 kts 270°
2026-04-21 19:03 51.46650 -0.48193 86 ft 6 kts 247°
2026-04-21 19:03 51.46619 -0.48213 87 ft 4 kts 179°
2026-04-21 19:04 51.46601 -0.48213 87 ft 0 kts 180°
2026-04-21 19:07 51.46597 -0.48213 87 ft 2 kts 180°
2026-04-21 19:07 51.46560 -0.48213 87 ft 7 kts 179°
2026-04-21 19:07 51.46506 -0.48210 88 ft 7 kts 168°
2026-04-21 19:08 51.46480 -0.48151 89 ft 5 kts 94°
2026-04-21 19:08 51.46480 -0.48148 88 ft 0 kts 93°
2026-04-21 19:08 51.46479 -0.48147 88 ft 1 kts 92°
2026-04-21 19:08 51.46480 -0.48029 87 ft 32 kts 90°
2026-04-21 19:09 51.46483 -0.47333 88 ft 94 kts 89°
2026-04-21 19:09 51.46489 -0.45979 141 ft 149 kts 89°
2026-04-21 19:09 51.46482 -0.44232 886 ft 157 kts 89°
2026-04-21 19:09 51.46460 -0.42509 1906 ft 152 kts 89°
2026-04-21 19:10 51.46394 -0.40806 2775 ft 156 kts 92°
2026-04-21 19:10 51.46274 -0.39006 3444 ft 172 kts 84°
2026-04-21 19:10 51.46835 -0.37205 4037 ft 191 kts 51°
2026-04-21 19:10 51.47803 -0.35628 4777 ft 209 kts 49°
2026-04-21 19:11 51.48858 -0.33871 5412 ft 228 kts 50°
2026-04-21 19:11 51.49953 -0.32036 5697 ft 224 kts 50°
2026-04-21 19:11 51.51027 -0.30245 5916 ft 222 kts 50°
2026-04-21 19:11 51.52098 -0.28459 5998 ft 223 kts 50°
2026-04-21 19:12 51.52810 -0.27272 6003 ft 222 kts 50°
2026-04-21 19:12 51.54026 -0.24636 5907 ft 226 kts 77°
2026-04-21 19:12 51.54284 -0.22118 6403 ft 233 kts 76°
2026-04-21 19:12 51.55054 -0.19734 7030 ft 252 kts 51°
2026-04-21 19:13 51.56527 -0.18110 7890 ft 266 kts 22°
2026-04-21 19:13 51.58412 -0.17893 8837 ft 283 kts 351°
2026-04-21 19:13 51.60176 -0.19369 9786 ft 296 kts 318°
2026-04-21 19:13 51.61290 -0.22156 10719 ft 302 kts 292°
2026-04-21 19:14 51.62022 -0.25296 11643 ft 294 kts 298°
2026-04-21 19:14 51.63223 -0.27849 11518 ft 285 kts 325°
2026-04-21 19:14 51.65017 -0.29086 10945 ft 284 kts 357°
2026-04-21 19:14 51.66978 -0.29339 10929 ft 285 kts 353°
2026-04-21 19:15 51.68916 -0.30384 11131 ft 306 kts 337°
2026-04-21 19:15 51.70794 -0.32076 11786 ft 317 kts 332°
2026-04-21 19:15 51.72671 -0.33986 12701 ft 322 kts 329°
2026-04-21 19:15 51.74575 -0.35943 13578 ft 326 kts 330°
2026-04-21 19:16 51.76515 -0.37882 14476 ft 330 kts 332°
2026-04-21 19:16 51.78466 -0.39855 15223 ft 333 kts 330°
2026-04-21 19:16 51.80438 -0.41838 16062 ft 335 kts 332°
2026-04-21 19:16 51.82447 -0.43782 16853 ft 339 kts 332°
2026-04-21 19:17 51.86550 -0.47734 18458 ft 347 kts 330°
2026-04-21 19:17 51.88621 -0.49757 19255 ft 346 kts 332°
2026-04-21 19:17 51.90666 -0.51687 20374 ft 337 kts 329°
2026-04-21 19:18 51.92675 -0.53674 21050 ft 341 kts 329°
2026-04-21 19:18 51.94719 -0.55683 21765 ft 342 kts 329°
2026-04-21 19:18 51.96738 -0.57659 22759 ft 337 kts 328°
2026-04-21 19:18 51.98733 -0.59606 23568 ft 336 kts 328°
2026-04-21 19:19 52.00746 -0.61577 24202 ft 338 kts 328°
2026-04-21 19:19 52.02765 -0.63556 24817 ft 339 kts 328°
2026-04-21 19:19 52.04789 -0.65543 25389 ft 342 kts 328°
2026-04-21 19:19 52.06841 -0.67558 25708 ft 351 kts 327°
2026-04-21 19:20 52.08950 -0.69628 26319 ft 351 kts 327°
2026-04-21 19:20 52.11021 -0.71660 27138 ft 346 kts 327°
2026-04-21 19:20 52.13087 -0.73690 27706 ft 348 kts 327°
2026-04-21 19:20 52.15185 -0.75761 27956 ft 353 kts 327°
2026-04-21 19:21 52.17270 -0.77820 28214 ft 350 kts 327°
2026-04-21 19:21 52.19355 -0.79881 28355 ft 351 kts 327°
2026-04-21 19:21 52.23548 -0.84032 28347 ft 352 kts 327°
2026-04-21 19:22 52.27704 -0.88162 28350 ft 348 kts 327°
2026-04-21 19:22 52.31841 -0.92288 28356 ft 352 kts 327°
2026-04-21 19:23 52.36025 -0.96460 28357 ft 352 kts 327°
2026-04-21 19:23 52.40203 -1.00618 28349 ft 350 kts 327°
2026-04-21 19:24 52.44363 -1.04780 28320 ft 351 kts 326°
2026-04-21 19:24 52.48527 -1.08957 28297 ft 351 kts 326°
2026-04-21 19:25 52.52697 -1.13146 28281 ft 352 kts 327°
2026-04-21 19:25 52.56881 -1.17361 28248 ft 353 kts 327°
2026-04-21 19:26 52.61062 -1.21587 28224 ft 352 kts 326°
2026-04-21 19:26 52.65240 -1.25814 28212 ft 352 kts 326°
2026-04-21 19:27 52.69414 -1.30043 28213 ft 352 kts 326°
2026-04-21 19:27 52.73573 -1.34286 28375 ft 352 kts 326°
2026-04-21 19:28 52.77725 -1.38537 28376 ft 354 kts 326°
2026-04-21 19:28 52.81927 -1.42844 28372 ft 355 kts 326°
2026-04-21 19:29 52.86122 -1.47147 28374 ft 355 kts 326°
2026-04-21 19:29 52.89640 -1.50758 28376 ft 354 kts 326°
2026-04-21 19:30 52.93813 -1.55043 28383 ft 353 kts 326°
2026-04-21 19:30 52.97998 -1.59350 28398 ft 354 kts 326°
2026-04-21 19:31 53.02186 -1.63661 28391 ft 356 kts 326°
2026-04-21 19:31 53.06512 -1.67704 28393 ft 358 kts 333°
2026-04-21 19:32 53.11170 -1.70703 28392 ft 359 kts 337°
2026-04-21 19:32 53.15834 -1.73515 28399 ft 359 kts 336°
2026-04-21 19:33 53.20509 -1.76434 28396 ft 359 kts 336°
2026-04-21 19:33 53.25171 -1.79358 28415 ft 360 kts 336°
2026-04-21 19:34 53.29914 -1.82330 28407 ft 362 kts 336°
2026-04-21 19:34 53.34614 -1.85274 28395 ft 361 kts 336°
2026-04-21 19:35 53.41666 -1.89701 28398 ft 361 kts 336°
2026-04-21 19:36 53.46368 -1.92658 28401 ft 361 kts 336°
2026-04-21 19:36 53.51084 -1.95623 28407 ft 361 kts 336°
2026-04-21 19:37 53.55792 -1.98590 28410 ft 361 kts 336°
2026-04-21 19:37 53.60489 -2.01553 28415 ft 361 kts 336°
2026-04-21 19:38 53.65186 -2.04517 28411 ft 361 kts 336°
2026-04-21 19:38 53.69909 -2.07503 28410 ft 361 kts 336°
2026-04-21 19:39 53.74603 -2.10514 28409 ft 363 kts 335°
2026-04-21 19:39 53.79308 -2.13701 28405 ft 364 kts 335°
2026-04-21 19:40 53.83950 -2.16864 28418 ft 361 kts 335°
2026-04-21 19:40 53.88636 -2.20060 28414 ft 361 kts 335°
2026-04-21 19:41 53.93313 -2.23265 28421 ft 362 kts 335°
2026-04-21 19:41 53.97980 -2.26472 28433 ft 362 kts 335°
2026-04-21 19:42 54.02655 -2.29697 28430 ft 367 kts 335°
2026-04-21 19:42 54.07369 -2.32984 28427 ft 365 kts 335°
2026-04-21 19:43 54.12060 -2.36266 28425 ft 364 kts 335°
2026-04-21 19:43 54.16747 -2.39546 28434 ft 364 kts 335°
2026-04-21 19:44 54.21432 -2.42824 28433 ft 364 kts 335°
2026-04-21 19:44 54.26203 -2.46177 28450 ft 379 kts 335°
2026-04-21 19:45 54.31055 -2.49588 28441 ft 373 kts 336°
2026-04-21 19:45 54.35866 -2.52955 28445 ft 375 kts 335°
2026-04-21 19:46 54.40695 -2.56354 28444 ft 374 kts 335°
2026-04-21 19:46 54.45499 -2.59735 28451 ft 373 kts 335°
2026-04-21 19:47 54.50365 -2.63161 28461 ft 386 kts 336°
2026-04-21 19:47 54.55297 -2.66688 28451 ft 378 kts 335°
2026-04-21 19:48 54.60189 -2.70110 28469 ft 379 kts 335°
2026-04-21 19:48 54.65006 -2.73524 28469 ft 373 kts 335°
2026-04-21 19:49 54.69825 -2.76947 28466 ft 375 kts 335°
2026-04-21 19:49 54.74663 -2.80378 28409 ft 382 kts 336°
2026-04-21 19:49 54.77129 -2.82132 28032 ft 382 kts 336°
2026-04-21 19:50 54.78741 -2.83294 27650 ft 380 kts 336°
2026-04-21 19:50 54.81951 -2.85592 27130 ft 369 kts 336°
2026-04-21 19:50 54.84284 -2.87276 26857 ft 358 kts 336°
2026-04-21 19:50 54.86567 -2.88863 26626 ft 347 kts 336°
2026-04-21 19:51 54.88799 -2.90422 26189 ft 347 kts 338°
2026-04-21 19:51 54.91103 -2.92035 25532 ft 366 kts 337°
2026-04-21 19:51 54.93484 -2.93791 24850 ft 376 kts 337°
2026-04-21 19:51 54.95897 -2.95584 24174 ft 378 kts 338°
2026-04-21 19:52 54.98319 -2.97384 23420 ft 379 kts 338°
2026-04-21 19:52 55.00736 -2.99136 22724 ft 378 kts 338°
2026-04-21 19:52 55.03181 -3.00879 22064 ft 377 kts 339°
2026-04-21 19:52 55.05600 -3.02597 21503 ft 373 kts 339°
2026-04-21 19:53 55.07173 -3.03755 21260 ft 368 kts 338°
2026-04-21 19:54 55.18810 -3.12276 19837 ft 361 kts 339°
2026-04-21 19:54 55.21146 -3.13948 19296 ft 367 kts 339°
2026-04-21 19:54 55.23454 -3.15634 18722 ft 365 kts 339°
2026-04-21 19:55 55.25780 -3.17378 18103 ft 361 kts 339°
2026-04-21 19:55 55.28063 -3.19088 17692 ft 352 kts 340°
2026-04-21 19:55 55.30319 -3.20672 17092 ft 349 kts 339°
2026-04-21 19:55 55.32497 -3.22585 16463 ft 349 kts 332°
2026-04-21 19:56 55.34560 -3.24822 15868 ft 348 kts 329°
2026-04-21 19:56 55.36588 -3.27134 15281 ft 346 kts 329°
2026-04-21 19:56 55.38595 -3.29403 14717 ft 344 kts 329°
2026-04-21 19:56 55.40621 -3.31635 14135 ft 341 kts 330°
2026-04-21 19:57 55.42627 -3.33831 13514 ft 338 kts 331°
2026-04-21 19:57 55.44516 -3.36171 12992 ft 335 kts 319°
2026-04-21 19:57 55.45882 -3.39367 12837 ft 322 kts 298°
2026-04-21 19:57 55.46706 -3.42943 12696 ft 308 kts 290°
2026-04-21 19:58 55.47393 -3.46477 12325 ft 303 kts 289°
2026-04-21 19:58 55.48050 -3.49948 12074 ft 294 kts 289°
2026-04-21 19:58 55.48693 -3.53345 11753 ft 290 kts 289°
2026-04-21 19:58 55.49448 -3.56610 11292 ft 288 kts 305°
2026-04-21 19:59 55.50840 -3.59084 10872 ft 282 kts 332°
2026-04-21 19:59 55.52532 -3.60676 10658 ft 272 kts 337°
2026-04-21 19:59 55.54232 -3.62140 10245 ft 273 kts 338°
2026-04-21 19:59 55.55938 -3.63592 9851 ft 271 kts 338°
2026-04-21 20:00 55.57643 -3.64997 9505 ft 269 kts 339°
2026-04-21 20:00 55.59326 -3.66369 9132 ft 267 kts 339°
2026-04-21 20:00 55.61012 -3.67750 8739 ft 265 kts 339°
2026-04-21 20:00 55.62677 -3.69116 8450 ft 259 kts 339°
2026-04-21 20:01 55.64221 -3.70402 8489 ft 242 kts 339°
2026-04-21 20:01 55.65756 -3.71685 8250 ft 239 kts 339°
2026-04-21 20:01 55.67235 -3.72923 8092 ft 232 kts 339°
2026-04-21 20:01 55.68676 -3.74135 7897 ft 228 kts 339°
2026-04-21 20:02 55.70105 -3.75343 7634 ft 227 kts 339°
2026-04-21 20:02 55.71520 -3.76544 7362 ft 225 kts 339°
2026-04-21 20:02 55.72912 -3.77737 7055 ft 224 kts 339°
2026-04-21 20:02 55.74312 -3.78936 6730 ft 223 kts 339°
2026-04-21 20:03 55.75710 -3.80133 6366 ft 223 kts 339°
2026-04-21 20:03 55.77117 -3.81253 6022 ft 218 kts 350°
2026-04-21 20:03 55.78577 -3.81384 5789 ft 210 kts
2026-04-21 20:03 55.79961 -3.80724 5579 ft 202 kts 37°
2026-04-21 20:04 55.80860 -3.78986 5396 ft 186 kts 61°
2026-04-21 20:04 55.81472 -3.77110 5241 ft 167 kts 63°
2026-04-21 20:04 55.82031 -3.75366 4982 ft 156 kts 63°
2026-04-21 20:04 55.82560 -3.73760 4792 ft 148 kts 63°
2026-04-21 20:05 55.83089 -3.72192 4594 ft 150 kts 62°
2026-04-21 20:05 55.83636 -3.70602 4377 ft 148 kts 62°
2026-04-21 20:05 55.84170 -3.69064 4180 ft 145 kts 62°
2026-04-21 20:05 55.84700 -3.67537 3980 ft 144 kts 62°
2026-04-21 20:06 55.85224 -3.66021 3789 ft 144 kts 62°
2026-04-21 20:06 55.85739 -3.64502 3584 ft 142 kts 62°
2026-04-21 20:06 55.86246 -3.62991 3378 ft 142 kts 63°
2026-04-21 20:06 55.86758 -3.61478 3189 ft 143 kts 62°
2026-04-21 20:07 55.87272 -3.59983 2987 ft 140 kts 62°
2026-04-21 20:07 55.87779 -3.58508 2803 ft 140 kts 62°
2026-04-21 20:07 55.88276 -3.57038 2634 ft 139 kts 62°
2026-04-21 20:07 55.88761 -3.55597 2423 ft 132 kts 62°
2026-04-21 20:08 55.89213 -3.54283 2194 ft 118 kts 62°
2026-04-21 20:08 55.89637 -3.53038 2074 ft 118 kts 62°
2026-04-21 20:08 55.90057 -3.51790 1917 ft 120 kts 62°
2026-04-21 20:08 55.90488 -3.50526 1725 ft 118 kts 61°
2026-04-21 20:09 55.90920 -3.49267 1584 ft 121 kts 62°
2026-04-21 20:09 55.91349 -3.47990 1401 ft 120 kts 61°
2026-04-21 20:09 55.91803 -3.46664 1235 ft 127 kts 58°
2026-04-21 20:09 55.92253 -3.45337 1026 ft 124 kts 60°
2026-04-21 20:10 55.92701 -3.44011 878 ft 128 kts 59°
2026-04-21 20:10 55.93189 -3.42631 696 ft 133 kts 59°
2026-04-21 20:10 55.93644 -3.41279 482 ft 121 kts 62°
2026-04-21 20:10 55.94075 -3.39979 298 ft 124 kts 62°
2026-04-21 20:11 55.94529 -3.38644 150 ft 128 kts 60°
2026-04-21 20:11 55.94930 -3.37452 112 ft 104 kts 58°
2026-04-21 20:11 55.95193 -3.36691 113 ft 40 kts 57°
2026-04-21 20:11 55.95258 -3.36475 111 ft 10 kts 79°
2026-04-21 20:12 55.95235 -3.36398 112 ft 5 kts 145°
2026-04-21 20:12 55.95212 -3.36372 113 ft 4 kts 148°
2026-04-21 20:12 55.95188 -3.36346 115 ft 4 kts 148°
2026-04-21 20:12 55.95183 -3.36340 114 ft 0 kts 149°
2026-04-21 20:13 55.95175 -3.36331 115 ft 2 kts 149°
2026-04-21 20:14 55.95151 -3.36309 115 ft 5 kts 160°
2026-04-21 20:14 55.95117 -3.36335 115 ft 8 kts 236°
2026-04-21 20:14 55.95070 -3.36396 116 ft 10 kts 171°
2026-04-21 20:14 55.95007 -3.36421 116 ft 10 kts 233°
2026-04-21 20:15 55.94972 -3.36520 115 ft 9 kts 238°
2026-04-21 20:15 55.94943 -3.36595 113 ft 2 kts 215°
2026-04-21 20:15 55.94910 -3.36580 114 ft 6 kts 150°
2026-04-21 20:15 55.94883 -3.36551 116 ft 0 kts 148°